Date,TemperatureHighF,TemperatureAvgF,TemperatureLowF,DewpointHighF,DewpointAvgF,DewpointLowF,HumidityHigh,HumidityAvg,HumidityLow,PressureMaxIn,PressureMinIn,WindSpeedMaxMPH,WindSpeedAvgMPH,GustSpeedMaxMPH,PrecipitationSumIn
2013-2-1,20.3,12.6,6.3,4.4,-4.2,-10.1,62,47,28,29.80,29.22,8,3,8,0.00
2013-2-2,20.5,12.6,3.0,9.5,-0.3,-11.3,63,56,47,29.82,29.62,8,2,8,0.34
2013-2-3,26.2,14.4,4.5,7.1,1.2,-6.7,63,56,40,29.63,29.42,4,1,4,0.00
2013-2-4,26.1,9.4,-6.9,4.7,-9.3,-22.0,66,44,19,29.58,29.42,11,2,11,0.00
2013-2-5,28.2,8.8,-12.8,-2.8,-16.0,-28.8,52,33,15,29.64,29.50,5,1,5,0.00
2013-2-6,24.6,17.4,0.5,16.7,-2.9,-20.6,73,43,18,30.03,29.46,7,3,7,0.00
2013-2-7,22.1,6.6,-0.8,-11.0,-15.4,-19.8,51,36,20,30.19,29.96,5,3,5,0.00
2013-2-8,13.5,9.0,5.7,3.9,-2.5,-10.8,66,59,43,29.95,29.61,7,4,7,0.00
2013-2-9,23.9,9.0,-10.3,2.0,-7.8,-26.7,65,47,24,30.03,29.71,6,3,6,0.00
2013-2-10,45.1,12.7,-13.2,2.5,-11.8,-29.6,52,35,15,30.08,29.75,5,1,5,0.01
2013-2-11,44.4,33.9,21.9,34.6,21.2,1.4,80,60,37,29.73,29.20,11,4,11,0.18
2013-2-12,34.2,32.1,29.1,27.7,25.0,21.1,81,75,68,29.51,29.23,11,5,11,0.00
2013-2-13,36.5,29.3,16.9,23.7,19.0,-2.8,75,66,41,29.50,29.39,97,3,97,0.01
2013-2-14,43.2,32.6,25.2,24.2,17.9,14.6,71,56,34,29.55,29.42,5,1,5,0.01
2013-2-15,37.2,33.6,25.2,28.8,19.9,8.1,76,58,43,29.63,29.39,14,6,14,0.04
2013-2-16,32.0,17.7,0.1,10.9,-4.2,-16.2,59,40,19,29.71,29.61,4,1,4,0.00
2013-2-17,17.6,4.7,-9.8,-9.7,-15.6,-25.8,50,39,23,29.67,29.49,9,3,9,0.00
2013-2-18,26.4,9.9,-1.1,-6.6,-14.3,-18.5,45,34,17,29.88,29.68,5,3,5,0.00
2013-2-19,48.6,31.9,18.1,31.0,12.9,-13.5,79,49,22,29.69,29.23,8,2,8,0.31
2013-2-20,28.9,26.3,23.5,18.1,11.2,5.8,65,53,39,29.37,29.28,11,3,11,0.00